{"data":{"norad_id":58951,"intl_designator":"2024-027W","name":"STARLINK-31330","alt_names":[],"object_type":"PAYLOAD","status":"ACTIVE","operator":null,"country":"US","launch_date":"2024-02-10","launch_site_code":"AFWTR","launch_vehicle":null,"mission":null,"orbit_class":"UNKNOWN","rcs_meters":null,"size_class":null,"mass_kg":null,"dimensions":null,"purposes":["comms"],"wikipedia_slug":null,"has_3d_model":false,"image_url":null,"decayed_at":null,"tle_current":{"epoch":"2026-05-24T21:06:38.093184Z","epoch_age_seconds":78611,"freshness":"FRESH","line1":"1 58951U 24027W   26144.87960756  .00000064  00000+0  13040-4 0  9999","line2":"2 58951  53.1624 312.1748 0001038  67.2966 292.8146 15.34390262129048","mean_motion":15.34390262,"eccentricity":0.0001038,"inclination_deg":53.1624,"raan_deg":312.1748,"arg_perigee_deg":67.2966,"mean_anomaly_deg":292.8146,"bstar":1.304e-5,"rev_number":12904,"period_min":93.848353685654,"perigee_km":462.0221015271,"apogee_km":463.44226596964,"semimajor_km":6840.8691837484,"source":"CELESTRAK","updated_at":"2026-05-25T13:38:18.792360Z"}}}